TimeCDT,TemperatureF,Dew PointF,Humidity,Sea Level PressureIn,VisibilityMPH,Wind Direction,Wind SpeedMPH,Gust SpeedMPH,PrecipitationIn,Events,Conditions,WindDirDegrees,DateUTC
12:53 AM,64.9,53.1,65,29.93,10.0,SE,5.8,-,N/A,,Clear,140,2013-07-04 05:53:00
1:53 AM,62.1,53.1,72,29.92,10.0,SSE,5.8,-,N/A,,Clear,150,2013-07-04 06:53:00
2:53 AM,63.0,53.1,70,29.91,10.0,South,8.1,-,N/A,,Clear,170,2013-07-04 07:53:00
3:53 AM,63.0,55.0,75,29.91,10.0,South,8.1,-,N/A,,Clear,190,2013-07-04 08:53:00
4:53 AM,62.1,55.9,80,29.92,10.0,South,8.1,-,N/A,,Clear,190,2013-07-04 09:53:00
5:53 AM,62.1,57.0,84,29.92,10.0,South,8.1,-,N/A,,Clear,190,2013-07-04 10:53:00
6:53 AM,63.0,57.9,84,29.92,10.0,South,8.1,-,N/A,,Clear,190,2013-07-04 11:53:00
7:53 AM,68.0,59.0,73,29.92,10.0,South,10.4,-,N/A,,Clear,190,2013-07-04 12:53:00
8:53 AM,73.0,59.0,61,29.91,10.0,South,10.4,-,N/A,,Clear,190,2013-07-04 13:53:00
9:53 AM,77.0,59.0,54,29.90,10.0,South,10.4,-,N/A,,Clear,190,2013-07-04 14:53:00
10:53 AM,82.0,57.9,44,29.89,10.0,South,12.7,-,N/A,,Clear,180,2013-07-04 15:53:00
11:53 AM,86.0,55.0,35,29.87,10.0,South,15.0,-,N/A,,Partly Cloudy,180,2013-07-04 16:53:00
12:53 PM,87.1,55.9,35,29.86,10.0,South,15.0,21.9,N/A,,Clear,180,2013-07-04 17:53:00
1:53 PM,89.1,53.1,29,29.85,10.0,SSW,13.8,-,N/A,,Clear,200,2013-07-04 18:53:00
2:53 PM,90.0,52.0,27,29.83,10.0,SSW,15.0,24.2,N/A,,Clear,200,2013-07-04 19:53:00
3:53 PM,90.0,53.1,28,29.83,10.0,SSW,16.1,24.2,N/A,,Clear,200,2013-07-04 20:53:00
4:53 PM,89.1,53.1,29,29.83,10.0,South,17.3,26.5,N/A,,Clear,180,2013-07-04 21:53:00
5:53 PM,89.1,54.0,30,29.82,10.0,South,18.4,25.3,N/A,,Clear,190,2013-07-04 22:53:00
6:53 PM,86.0,55.9,36,29.82,10.0,South,13.8,-,N/A,,Clear,190,2013-07-04 23:53:00
7:53 PM,84.9,57.0,38,29.81,10.0,South,17.3,24.2,N/A,,Clear,190,2013-07-05 00:53:00
8:53 PM,82.0,55.9,41,29.81,10.0,South,11.5,-,N/A,,Clear,180,2013-07-05 01:53:00
9:53 PM,78.1,55.9,46,29.83,10.0,South,10.4,-,N/A,,Clear,180,2013-07-05 02:53:00
10:53 PM,75.9,55.9,50,29.83,10.0,South,11.5,-,N/A,,Clear,170,2013-07-05 03:53:00
11:53 PM,73.0,55.9,55,29.83,10.0,SSE,11.5,-,N/A,,Clear,160,2013-07-05 04:53:00